Regional Weather Roundup
Issued by NWS

Home | Current Version | Previous Version | Graphics & Text | Print | Product List | Glossary On
Versions: 1 2 3 4 5 6 7 8 9 10 11 12 13 14 15 16 17 18 19 20 21 22 23 24 25 26 27 28 29 30 31 32 33 34 35 36 37 38 39 40 41 42 43 44 45 46 47 48 49 50
000
ASUS43 KFSD 251002
RWRSD

WEATHER ROUNDUP FOR SOUTH DAKOTA
NATIONAL WEATHER SERVICE SIOUX FALLS SD
400 AM CST SUN JAN 25 2015

NOTE: "FAIR" INDICATES FEW OR NO CLOUDS BELOW 12,000 FEET WITH NO
SIGNIFICANT WEATHER AND/OR OBSTRUCTIONS TO VISIBILITY.


SDZ001>005-009-010-012>017-251100-
NORTHWEST AND NORTH CENTRAL SOUTH DAKOTA

CITY           SKY/WX    TMP DP  RH WIND       PRES   REMARKS
BUFFALO          N/A     33  26  75 NW23      29.93F WCI  21
FAITH            N/A     32  27  81 W14       29.97S WCI  22
MOBRIDGE       CLOUDY    38  33  82 NW15      29.89R
$$

SDZ012>016-024>037-041>051-057-063-072>074-251100-
SOUTHWEST AND SOUTH CENTRAL SOUTH DAKOTA

CITY           SKY/WX    TMP DP  RH WIND       PRES   REMARKS
RAPID CTY ARPT CLEAR     37  21  52 NW17      30.02S
PIERRE         CLOUDY    37  31  78 NW16      29.93R
CUSTER         CLEAR     33   8  35 NW15G26   30.00F WCI  23
PHILIP         MOCLDY    34  28  79 NW13      29.99R WCI  25
PINE RIDGE     CLEAR     29  20  69 W6        30.04R WCI  23
WINNER         LGT RAIN  38  31  76 NW22G30   29.92R
$$

SDZ004>011-016>023-039-040-251100-
NORTHEAST SOUTH DAKOTA

CITY           SKY/WX    TMP DP  RH WIND       PRES   REMARKS
ABERDEEN       CLOUDY    29  26  89 N10       29.91R WCI  20
WATERTOWN      CLOUDY    31  29  92 N13       29.83R WCI  21
SISSETON         N/A     27  26  96 N13       29.88R WCI  16
$$

SDZ017-020-022-023-036>040-048>070-251100-
SOUTHEAST SOUTH DAKOTA

CITY           SKY/WX    TMP DP  RH WIND       PRES   REMARKS
SIOUX FALLS    LGT SNOW  33  31  92 N17       29.80R FOG     WCI  22
HURON          LGT SNOW  31  30  96 N13       29.89R FOG     WCI  21
MITCHELL       CLOUDY    33  31  92 N15       29.88R WCI  23
YANKTON        CLOUDY    34  28  80 NW21G29   29.84R WCI  22
$$

ABBREVIATIONS USED IN REMARKS
   TC - TEMPERATURE IN CELSIUS
  WCI - WIND CHILL INDEX
   HX - HEAT INDEX
  VSB - VISIBILITY



USA.gov is the U.S. government's official web portal to all federal, state and local government web resources and services.